Powrót do katalogu

STARLINK-37624

AktywnyŁącznośćVLEO
NORAD 69833·PAYLOAD·🇺🇸 United States

Wystrzelony Jul 5, 2026 z Cape Canaveral Space Force Station

Loading…

Następne Przeloty (najbliższe 24 godziny)

TLE

ŚwieżeSource: CelesTrak SupGP

Epoka: Sep 15, 2026, 04:04 UTC

1 69833C 26154Q   26258.16993056  .00074952  00000+0  22138-2 0  2581
2 69833  53.1585 356.5532 0001274  88.2922 181.2435 15.34363218    13

Śledź STARLINK-37624 w czasie rzeczywistym z AllMySat

Download on the App Store